Reflectivity
9 10 25 31 4 -9 -19 0 5 -19 -20 -20 -20 -20 -20 -20 14 -20 -20 -20 -20 -20
-3 -9 4 15 26 -19 -17 -8 4 -20 -20 24 13 -20 16 -20 -5 -20 -20 -20 -20 -20
-17 -3 -2 -5 -4 24 -17 6 7 -9 -19 21 -20 -20 -20 -20 -20 -20 -20 -20 -20 -20
-8 -2 -12 -20 -17 22 4 8 9 -20 -20 19 -20 -20 -20 -20 -20 -20 -20 -20 -20 -20
3 0 9 4 -5 0 11 4 2 4 -16 19 -2 -20 -20 -20 -20 -20 -20 -20 -20 -20
6 8 9 8 4 3 3 -9 14 5 -12 15 -1 -20 -20 -20 -20 -20 -20 -20 -20 -20
13 5 2 5 -19 0 4 -1 26 5 -4 0 18 -20 -20 -20 -20 -14 -18 -20 -20 -20
14 12 8 4 -20 -18 1 7 7 9 -2 -1 11 -20 -20 -20 -20 -7 -19 -20 -20 -20
11 18 3 -3 2 -5 -20 -20 7 9 2 -3 7 -20 -20 -20 -15 -20 -20 -20 -20 -20
9 6 -20 -0 -20 -4 -20 -20 8 6 7 6 3 -15 5 -14 -20 -17 -20 -20 -20 -20
4 -3 -12 -20 -19 -20 -20 -17 -20 11 21 1 -13 -3 2 -20 -20 -20 -20 -20 -20 -20
11 -10 -9 -20 -20 -19 -20 10 -11 19 28 11 9 4 13 -20 -20 -20 -20 -20 -20 -20
7 12 9 -20 14 -20 -8 25 16 29 34 25 23 12 11 -2 -20 -20 -20 -20 -20 -20
-11 -9 -10 -20 -20 -3 17 30 27 31 32 32 22 21 -0 -5 -20 -20 -20 -20 -20 -20
Wind_Speed
25 14 15 17 13 13 13 14 16 17 18 17 17 17 17 11 11 15 13 15 13 10
20 18 16 19 18 14 15 14 17 18 18 17 17 17 18 12 17 16 14 14 14 11
21 19 17 15 15 19 17 19 17 18 17 18 17 17 19 15 14 13 13 12 15 14
20 20 18 17 17 16 17 19 18 19 18 18 18 18 19 18 17 18 17 16 16 16
21 20 19 18 18 17 18 19 18 19 19 19 19 20 20 20 19 20 19 18 17 17
21 21 20 20 19 20 20 18 18 19 18 19 20 20 20 20 19 18 19 18 18 17
19 21 21 20 20 20 19 17 20 18 18 19 20 21 21 20 17 19 18 16 18 18
17 19 19 19 19 17 16 16 20 18 18 19 19 15 20 19 18 18 17 16 17 17
15 16 17 18 17 17 16 17 17 18 18 21 14 17 18 19 17 19 18 17 18 17
14 15 17 18 17 16 16 16 18 19 20 20 19 18 20 19 15 16 17 18 17 15
14 15 18 15 15 14 14 16 17 19 20 18 16 21 21 21 20 18 19 18 19 17
12 14 13 15 16 13 13 14 16 17 19 19 16 22 23 21 20 17 19 18 19 18
11 14 14 15 14 12 11 14 12 14 15 17 17 20 24 25 14 17 14 16 18 14
9 13 15 14 13 12 13 13 13 14 12 15 17 15 21 27 16 13 13 14 13 13
Wind_Direction
207 205 195 211 216 208 200 194 189 182 183 187 188 190 192 183 193 199 210 207 212 212
208 212 206 208 208 215 202 196 190 188 185 189 190 188 191 188 193 202 205 210 209 217
213 214 220 212 214 210 203 200 191 186 187 189 190 188 193 193 193 195 201 208 206 211
212 210 215 218 216 213 209 202 196 188 185 190 189 190 194 196 189 196 203 206 207 208
208 210 213 212 211 208 211 206 194 195 188 194 191 192 196 197 194 197 203 203 208 208
207 205 209 210 209 206 211 207 199 198 192 197 196 193 197 200 196 194 202 204 204 208
208 203 209 212 212 216 214 206 211 196 197 199 199 198 198 199 194 198 204 205 206 209
212 206 205 210 215 212 210 209 210 202 198 202 204 199 196 197 194 199 202 204 209 214
210 211 209 210 209 208 205 210 212 210 199 204 202 184 192 191 192 197 202 208 210 216
206 204 206 207 207 204 202 207 215 211 203 205 203 172 184 190 191 194 203 210 211 210
202 201 207 208 206 204 205 204 212 213 204 203 203 171 183 188 200 202 206 212 211 206
194 201 198 201 204 205 208 211 216 211 201 205 201 173 180 182 205 208 210 209 211 207
220 201 201 207 208 205 204 214 204 214 202 205 205 177 176 188 198 205 209 207 214 205
281 228 211 203 198 197 200 206 210 210 200 207 206 175 183 192 197 197 202 208 212 211